RH
23 22 21 26 30 34 26 20 21 22 22 19 15 15 21 34 53 35 53 76 83 99 83 58 61 56 50 48 47 46 44 43 44
22 25 28 26 29 33 23 20 20 21 22 18 14 16 24 34 53 76 84 94 100 100 89 76 70 68 51 46 47 46 39 40 38
24 25 29 24 20 18 19 21 23 24 20 14 14 17 24 40 75 96 100 100 100 100 94 84 78 61 45 41 46 42 32 36 35
30 24 20 16 18 19 22 25 29 24 15 14 16 18 36 94 100 100 100 100 100 100 100 99 86 68 50 44 46 42 35 32 36
19 15 16 22 29 34 38 33 27 16 14 15 17 33 96 100 84 78 93 100 100 100 100 100 86 67 50 43 46 45 39 33 36
15 18 27 39 42 44 39 26 18 14 14 17 19 45 89 89 76 100 100 99 76 85 100 99 96 73 51 42 45 51 49 39 35
24 28 50 52 48 37 24 20 15 13 15 18 27 89 100 100 100 100 100 83 100 100 94 92 93 75 54 44 46 54 57 54 40
40 63 64 47 33 24 20 15 11 14 16 19 56 100 100 100 100 99 95 100 100 100 100 95 78 66 53 41 40 55 56 64 66
65 59 44 33 24 21 15 10 11 17 20 20 29 79 100 100 100 100 100 100 100 100 100 100 99 85 65 58 55 49 51 69 73
55 43 34 25 24 22 14 10 13 21 24 37 46 49 93 100 100 100 100 100 100 100 99 92 84 82 72 66 66 56 65 79 81
50 40 27 26 27 22 14 12 16 20 29 35 47 91 100 100 100 100 100 100 100 93 84 95 88 77 68 65 55 66 91 90 79
39 29 24 26 27 22 18 18 18 20 29 40 71 73 69 66 71 83 90 93 91 91 77 76 72 62 59 50 82 90 84 74 62
37 31 30 29 28 30 31 28 22 18 26 31 40 62 78 82 85 81 70 58 56 62 62 62 60 48 60 93 95 89 70 58 67
48 36 29 30 31 32 34 41 45 36 21 15 28 43 46 46 50 48 46 40 41 40 38 46 70 93 94 94 81 58 58 65 68
55 39 35 36 37 34 33 33 33 41 54 57 50 41 38 39 43 47 55 63 69 79 86 82 77 74 79 85 66 66 68 65 64
70 61 52 53 54 51 47 41 39 37 40 44 53 59 62 66 75 81 77 74 69 66 63 62 60 62 53 55 60 65 67 67 69
54 48 49 45 41 32 34 50 59 56 50 48 46 49 53 51 50 52 55 56 59 61 62 64 68 70 73 78 85 85 77 74 76
20 20 19 16 16 19 18 20 24 36 43 42 55 64 79 91 96 93 87 83 85 84 76 78 77 71 67 64 58 62 53 47 50
16 16 14 12 13 14 14 14 15 17 19 21 19 20 22 30 50 76 80 70 62 60 64 63 63 66 73 76 79 76 71 70 69
22 21 21 20 17 15 14 14 13 13 14 15 16 16 17 15 13 14 17 25 29 32 40 54 66 73 76 86 88 79 74 58 55
Wind_Speed
55 59 61 64 64 64 62 60 59 58 57 60 60 57 51 47 48 45 43 41 43 42 43 42 43 43 43 43 42 44 45 44 43
61 64 65 66 68 67 64 60 58 57 58 58 59 53 47 45 42 45 44 44 45 46 42 42 44 45 44 46 45 45 46 44 42
66 70 69 69 68 63 59 56 55 56 56 56 52 45 43 45 46 47 50 47 48 47 44 44 45 44 45 45 46 45 45 45 43
70 71 68 62 58 54 52 50 52 54 54 53 46 43 42 42 47 48 44 50 49 51 53 46 45 47 48 49 47 46 46 46 46
71 64 58 52 49 47 47 48 51 52 51 47 44 44 43 39 40 44 49 58 51 52 48 48 49 49 51 49 49 47 45 45 48
58 53 47 47 45 46 47 48 50 49 48 44 45 45 45 44 45 53 52 52 52 53 54 54 50 50 48 51 50 48 46 45 46
50 44 44 45 46 46 46 48 48 48 46 44 45 43 44 47 51 52 53 51 53 54 55 54 52 53 54 56 52 51 49 47 49
42 41 43 44 45 46 46 46 46 47 45 46 47 46 47 51 50 47 51 53 55 56 54 53 58 59 61 63 58 57 56 52 50
40 43 43 45 44 45 46 45 44 44 44 44 51 54 53 53 53 49 53 55 59 58 57 59 59 60 64 62 64 64 62 57 57
41 42 43 41 41 44 45 44 44 44 46 47 49 54 57 58 58 60 58 59 59 61 65 66 67 67 70 71 73 70 63 62 64
43 44 42 40 40 40 43 45 44 45 46 48 52 56 59 61 63 67 69 70 71 72 74 72 73 75 78 78 72 67 67 68 69
42 43 41 40 40 39 39 42 43 45 46 49 51 54 58 60 64 69 71 75 78 78 79 81 80 80 82 71 69 70 72 74 74
41 39 41 41 40 39 39 39 41 44 47 48 52 58 61 63 65 67 69 73 79 82 83 82 80 74 71 72 75 78 78 74 74
40 39 40 41 40 41 41 40 40 41 44 48 52 55 58 60 63 65 66 67 68 70 71 71 72 75 77 79 80 80 78 80 81
41 39 39 39 39 39 41 42 42 43 45 46 50 53 56 56 60 62 64 66 68 70 73 76 78 80 81 83 83 82 85 87 88
39 40 40 42 42 42 43 44 46 44 46 48 52 55 58 59 62 65 68 70 72 76 78 80 82 84 84 85 88 90 92 93 95
41 44 45 47 48 49 49 50 50 51 50 51 52 56 62 62 65 68 71 73 76 79 81 83 86 89 90 93 96 96 97 99 100
43 45 47 49 50 52 52 52 55 58 60 58 59 60 62 65 70 74 78 80 82 85 88 91 94 95 97 100 101 104 104 104 104
42 44 46 48 50 52 55 56 58 59 62 64 63 65 65 68 67 74 81 84 86 89 92 94 96 98 100 103 105 106 108 109 110
49 51 53 55 56 58 59 60 62 63 64 66 70 73 75 75 73 73 80 85 90 93 95 98 101 104 105 106 109 112 114 114 114
Wind_Direction
280 282 284 286 287 286 284 281 278 279 278 278 276 270 263 257 255 260 263 264 265 270 272 275 280 284 284 285 285 282 280 277 271
281 289 288 287 285 285 283 279 280 279 278 277 273 267 262 254 254 256 261 265 269 268 270 273 279 282 283 282 285 286 282 278 270
285 291 289 287 285 282 279 278 278 277 277 275 270 261 253 250 250 259 266 267 268 267 270 274 277 280 284 285 283 287 283 275 266
291 290 288 286 282 280 277 275 275 276 275 271 263 252 248 254 259 258 265 267 267 274 270 272 276 279 284 287 285 287 283 275 265
293 290 287 282 277 275 273 273 275 275 272 265 255 244 250 254 261 262 269 268 267 275 271 272 275 278 281 285 287 288 287 276 266
290 286 281 280 272 271 272 274 275 271 266 256 249 245 249 252 256 261 266 269 271 273 272 274 271 274 281 284 287 287 286 279 270
289 280 276 274 273 275 276 276 274 268 263 251 245 241 250 256 259 261 265 270 268 271 273 271 270 276 281 285 284 289 284 283 275
283 280 277 277 278 279 278 276 272 267 262 251 242 246 253 259 260 266 269 270 270 270 268 271 278 284 283 287 283 286 286 280 278
281 281 284 284 283 283 280 277 272 266 262 254 249 246 252 255 257 261 267 271 273 273 272 277 280 282 285 284 285 286 284 278 278
285 284 283 284 285 286 283 278 270 267 261 257 251 250 253 256 258 261 267 272 273 275 275 276 277 281 283 284 286 284 278 276 277
286 287 286 286 286 287 284 280 275 269 263 260 256 255 256 258 259 260 265 266 270 270 272 276 276 278 281 284 281 277 276 276 277
288 288 287 285 285 285 284 284 282 274 266 263 261 261 261 262 262 263 265 268 271 272 273 276 280 278 280 278 276 276 277 279 277
288 289 289 288 286 287 286 286 285 281 274 269 267 263 264 266 269 269 268 271 271 272 273 275 276 275 274 276 277 277 277 275 274
294 291 290 289 290 292 289 285 284 284 281 279 275 272 270 271 272 272 273 274 274 273 273 273 273 275 276 276 277 276 275 275 275
296 294 291 293 295 295 294 292 289 285 283 282 281 279 277 277 276 277 276 276 276 277 276 276 277 277 278 278 277 275 275 275 275
292 294 294 294 295 294 294 293 293 290 289 288 286 284 283 282 281 279 280 279 280 280 280 280 280 279 279 278 277 276 275 275 275
292 293 292 293 293 293 292 291 290 288 286 285 284 286 287 285 283 283 283 282 282 282 281 280 279 278 277 277 276 276 276 275 274
291 292 293 293 292 291 290 289 288 287 285 282 279 277 278 281 285 285 284 283 282 282 280 279 278 277 276 275 275 275 275 274 273
295 296 296 297 297 296 295 293 288 286 285 285 282 279 276 275 274 277 280 280 279 279 279 279 279 278 277 276 276 276 276 277 276
302 302 303 303 302 300 298 297 295 292 288 286 285 284 283 280 273 267 270 274 277 277 277 277 278 278 277 277 277 277 277 276 276